This demonstration page uses our WeatherBlox Daily Observations layout. Learn more.

Left ArrowRight Arrow

Hourly Observations for May 16, 2021

Temp ( °F °C ) Dew Point ( °F °C ) Humidity (%) Winds ( mph kmh ) Pressure ( in mb ) Visibility ( mi km ) Precip ( " mm )
12:15 am 00:15 Mostly Cloudy 56 13.3 46 7.8 70 70 N 3 6 30.19 1022 10 16 0.00 0.00
12:35 am 00:35 Cloudy 56 13.5 46 7.5 67 67 Calm 30.19 1022 10 16 0.00 0.00
12:55 am 00:55 Partly Cloudy 56 13.6 45 7.3 66 66 WSW 3 6 30.19 1022 10 16 0.00 0.00
1:15 am 01:15 Mostly Cloudy 55 12.5 46 7.9 74 74 Calm 30.19 1022 10 16 0.00 0.00
1:35 am 01:35 Mostly Cloudy 55 12.7 46 8 73 73 Calm 30.19 1022 10 16 0.00 0.00
1:55 am 01:55 Mostly Cloudy 54 12 46 7.9 76 76 WSW 3 6 30.19 1022 10 16 0.00 0.00
2:15 am 02:15 Cloudy 54 12 46 7.9 76 76 W 3 6 30.19 1022 10 16 0.00 0.00
2:35 am 02:35 Cloudy 54 12.1 47 8.6 79 79 WSW 3 6 30.19 1022 10 16 0.00 0.00
2:55 am 02:55 Cloudy 54 12.2 46 7.6 74 74 SW 5 7 30.19 1022 10 16 0.00 0.00
3:15 am 03:15 Cloudy 55 12.7 45 7 69 69 WSW 3 6 30.19 1022 10 16 0.00 0.00
3:35 am 03:35 Cloudy 54 12.2 47 8.2 77 77 Calm 30.18 1022 10 16 0.00 0.00
3:55 am 03:55 Cloudy 53 11.9 47 8.3 79 79 Calm 30.18 1022 10 16 0.00 0.00
4:15 am 04:15 Cloudy 54 12 46 8 77 77 Calm 30.18 1022 10 16 0.00 0.00
4:35 am 04:35 Cloudy 53 11.6 47 8.1 79 79 Calm 30.20 1023 10 16 0.00 0.00
4:55 am 04:55 Cloudy 54 12 48 8.7 80 80 Calm 30.19 1022 10 16 0.00 0.00
5:15 am 05:15 Cloudy 54 12 48 9.1 83 83 Calm 30.19 1022 10 16 0.00 0.00
5:35 am 05:35 Cloudy 53 11.8 49 9.3 85 85 Calm 30.19 1022 10 16 0.00 0.00
5:55 am 05:55 Cloudy 53 11.8 50 9.9 88 88 Calm 30.19 1022 10 16 0.00 0.00
6:15 am 06:15 Cloudy 53 11.5 48 8.9 84 84 Calm 30.21 1023 10 16 0.00 0.00
6:35 am 06:35 Cloudy with Light Rain 53 11.5 48 8.8 84 84 W 3 6 30.22 1023 10 16 0.00 0.00
6:55 am 06:55 Cloudy with Light Rain 53 11.5 47 8.4 81 81 WNW 5 7 30.23 1024 10 16 0.00 0.00
7:15 am 07:15 Cloudy 53 11.7 48 9.1 84 84 Calm 30.22 1024 10 16 0.00 0.00
7:35 am 07:35 Cloudy 53 11.7 49 9.2 85 85 S 3 6 30.23 1024 10 16 0.00 0.00
7:55 am 07:55 Cloudy 54 12 49 9.3 84 84 Calm 30.24 1024 10 16 0.00 0.00
8:15 am 08:15 Cloudy 54 12.4 49 9.2 81 81 Calm 30.25 1024 10 16 0.00 0.00
8:35 am 08:35 Cloudy 55 13 49 9.3 78 78 Calm 30.24 1024 10 16 0.00 0.00
8:55 am 08:55 Cloudy 56 13.5 48 9 74 74 ESE 3 6 30.23 1024 10 16 0.00 0.00
9:15 am 09:15 Cloudy 57 13.9 49 9.6 75 75 Calm 30.24 1024 10 16 0.00 0.00
9:35 am 09:35 Cloudy 58 14.3 49 9.5 73 73 E 3 6 30.24 1024 10 16 0.00 0.00
9:55 am 09:55 Cloudy 59 15 48 8.7 66 66 Calm 30.23 1024 10 16 0.00 0.00
10:15 am 10:15 Cloudy 61 15.9 48 9.1 64 64 Calm 30.24 1024 10 16 0.00 0.00
10:35 am 10:35 Mostly Cloudy 62 16.7 46 7.9 56 56 SE 3 6 30.23 1024 10 16 0.00 0.00
10:55 am 10:55 Mostly Cloudy 63 17.4 46 7.8 54 54 SSW 5 7 30.22 1024 10 16 0.00 0.00
11:15 am 11:15 Cloudy 64 17.5 46 7.5 52 52 SSW 3 6 30.22 1024 10 16 0.00 0.00
11:35 am 11:35 Cloudy 65 18.1 46 8 52 52 SW 7 11 30.22 1023 10 16 0.00 0.00
11:55 am 11:55 Cloudy 65 18.1 47 8.2 53 53 Calm 30.21 1023 10 16 0.00 0.00
12:15 pm 12:15 Partly Cloudy 65 18.5 45 7.4 49 49 SSW 3 6 30.20 1023 10 16 0.00 0.00
12:35 pm 12:35 Sunny 65 18.6 45 7.1 47 47 Calm 30.20 1023 10 16 0.00 0.00
12:55 pm 12:55 Mostly Cloudy 67 19.4 46 8 48 48 SW 6 9 30.20 1023 10 16 0.00 0.00
1:15 pm 13:15 Mostly Cloudy 67 19.4 46 7.9 48 48 S 3 6 30.19 1022 10 16 0.00 0.00
1:35 pm 13:35 Mostly Cloudy 66 19.1 47 8.1 49 49 ESE 5 7 30.19 1022 10 16 0.00 0.00
1:55 pm 13:55 Mostly Cloudy 67 19.3 46 7.9 48 48 S 6 9 30.19 1022 10 16 0.00 0.00
2:15 pm 14:15 Mostly Cloudy 67 19.4 47 8.2 48 48 S 8 13 30.19 1022 10 16 0.00 0.00
2:35 pm 14:35 Partly Cloudy 68 20.1 48 8.9 49 49 SW 7 11 30.17 1022 10 16 0.00 0.00
2:55 pm 14:55 Partly Cloudy 67 19.6 47 8.5 49 49 SSE 6 9 30.17 1022 10 16 0.00 0.00
3:15 pm 15:15 Mostly Cloudy 68 19.9 47 8.6 48 48 S 5 7 30.17 1022 10 16 0.00 0.00
3:35 pm 15:35 Cloudy 68 19.9 48 8.9 49 49 S 6 9 30.16 1021 10 16 0.00 0.00
3:55 pm 15:55 Cloudy 67 19.7 47 8.6 49 49 ESE 5 7 30.16 1021 10 16 0.00 0.00
4:15 pm 16:15 Partly Cloudy 68 20 48 9.1 50 50 S 7 11 30.15 1021 10 16 0.00 0.00
4:35 pm 16:35 Partly Cloudy 69 20.5 47 8.4 46 46 SSW 5 7 30.14 1021 10 16 0.00 0.00
4:55 pm 16:55 Partly Cloudy 69 20.5 47 8.5 46 46 SE 6 9 30.14 1021 10 16 0.00 0.00
5:15 pm 17:15 Partly Cloudy 69 20.4 47 8.4 46 46 SE 5 7 30.14 1021 10 16 0.00 0.00
5:35 pm 17:35 Partly Cloudy 68 20.2 48 8.9 48 48 Calm 30.14 1021 10 16 0.00 0.00
5:55 pm 17:55 Mostly Cloudy 69 20.5 47 8.2 45 45 Calm 30.13 1020 10 16 0.00 0.00
6:15 pm 18:15 Cloudy 69 20.5 48 8.8 47 47 SSE 6 9 30.13 1020 10 16 0.00 0.00
6:35 pm 18:35 Cloudy 68 20.1 47 8.5 47 47 Calm 30.14 1021 10 16 0.00 0.00
6:55 pm 18:55 Cloudy 69 20.3 47 8.6 47 47 ESE 3 6 30.13 1020 10 16 0.00 0.00
7:15 pm 19:15 Mostly Cloudy 68 20.2 48 8.8 48 48 SE 7 11 30.13 1020 10 16 0.00 0.00
7:35 pm 19:35 Cloudy 68 20.1 48 8.7 48 48 Calm 30.13 1020 10 16 0.00 0.00
7:55 pm 19:55 Cloudy 68 20.1 47 8.6 48 48 SE 3 6 30.13 1020 10 16 0.00 0.00
8:15 pm 20:15 Cloudy 67 19.6 50 9.8 53 53 E 3 6 30.13 1020 10 16 0.00 0.00
8:35 pm 20:35 Partly Cloudy 66 19.1 51 10.4 57 57 E 5 7 30.13 1020 10 16 0.00 0.00
8:55 pm 20:55 Clear 66 18.9 50 9.9 56 56 E 3 6 30.14 1021 10 16 0.00 0.00
9:15 pm 21:15 Clear 65 18.6 49 9.6 56 56 ESE 5 7 30.14 1021 10 16 0.00 0.00
9:35 pm 21:35 Partly Cloudy 64 17.7 51 10.7 64 64 SE 3 6 30.14 1021 10 16 0.00 0.00
9:55 pm 21:55 Partly Cloudy 64 17.7 50 10.1 61 61 SE 5 7 30.15 1021 10 16 0.00 0.00
10:15 pm 22:15 Clear 63 17.3 51 10.5 65 65 SSE 6 9 30.16 1021 10 16 0.00 0.00
10:35 pm 22:35 Clear 63 17.1 51 10.7 66 66 S 3 6 30.17 1022 10 16 0.00 0.00
10:55 pm 22:55 Clear 63 17 51 10.8 67 67 SSE 5 7 30.17 1022 10 16 0.00 0.00
11:15 pm 23:15 Clear 62 16.9 51 10.8 67 67 SSE 5 7 30.17 1022 10 16 0.00 0.00
11:35 pm 23:35 Clear 62 16.8 51 10.6 67 67 SE 6 9 30.16 1021 10 16 0.00 0.00
11:55 pm 23:55 Clear 62 16.6 51 10.6 68 68 SE 7 11 30.15 1021 10 16 0.00 0.00

Powered by AerisWeather